Content
SEND FEEDBACK

Daily
Averages
Monthly
Summary
United States of America

GROVE, OKLAHOMA


Home > North America > United States > Oklahoma
Elevation: 860 feet     Latitude: 36 32N     Longitude: 094 46W

WEATHER
 
SELECT A DAY
Number of Records: 341,364;   Date Range: 1/8/01 - 12/20/14
 
SHARE

PRINT THIS DATA

[ ← Previous Day ]
WEATHER ALMANAC - JANUARY 31, 2013
[ Next Day → ]
[ °C ]   °F
Weather ElementAverageHighLow
Temperature30.4 °F44.6 °F (12:15 pm)21.2 °F (11:15 pm)
Dewpoint22.5 °F30.2 °F (9:35 am)10.4 °F (7:55 pm)
Humidity74.2 %100 % (5:35 am)51 % (7:55 pm)
Barometer30.21 in30.49 in (10:15 pm)30.03 in (2:35 am)
Wind Speed7 mph18.4 mph (1:55 pm)
Wind Gust25.3 mph (3:15 pm)
Weather ElementAverage
Visibility9.9 mi
Wind DirectionSW (220.3 °)

Weather ElementTotal
Precipitation---
Heating Degree Days32.1 (Base 65)
Averaged from 71 records on January 31, 2013
WEATHER CONDITIONS BREAKOUT
WIND DIRECTION BREAKOUT
WEATHER BY HOUR - JANUARY 31, 2013
[ °C ]   °F
Local TimeTemperatureDewpointHumidityBarometerVisibilityWind DirectionWind SpeedGust SpeedPrecipitationEventsConditions
12:35 AM26.6 °F24.8 °F93 %30.07 in10.0 miCalmClear
12:55 AM24.8 °F23.0 °F93 %30.07 in10.0 miSouth (190°)3.5 mphClear
1:15 AM24.8 °F23.0 °F93 %30.06 in10.0 miSouth (190°)4.6 mphClear
1:35 AM26.6 °F23.0 °F86 %30.05 in10.0 miSouth (170°)5.8 mphClear
1:55 AM26.6 °F23.0 °F86 %30.04 in10.0 miSE (140°)3.5 mphClear
2:15 AM24.8 °F23.0 °F93 %30.04 in10.0 miCalmClear
2:35 AM26.6 °F23.0 °F86 %30.03 in10.0 miCalmClear
2:55 AM26.6 °F23.0 °F86 %30.04 in10.0 miCalmClear
3:15 AM26.6 °F23.0 °F86 %30.04 in10.0 miCalmClear
3:35 AM24.8 °F23.0 °F93 %30.04 in10.0 miSouth (190°)4.6 mphClear
3:55 AM26.6 °F23.0 °F86 %30.04 in10.0 miSouth (180°)3.5 mphClear
4:15 AM26.6 °F23.0 °F86 %30.04 in10.0 miSouth (190°)4.6 mphClear
4:35 AM26.6 °F23.0 °F86 %30.03 in10.0 miSouth (180°)3.5 mphClear
4:55 AM26.6 °F23.0 °F86 %30.03 in10.0 miCalmClear
5:15 AM26.6 °F23.0 °F86 %30.03 in10.0 miCalmClear
5:35 AM24.8 °F24.8 °F100 %30.03 in10.0 miCalmClear
5:55 AM24.8 °F24.8 °F100 %30.03 in10.0 miCalmClear
6:15 AM24.8 °F24.8 °F100 %30.03 in10.0 miCalmClear
6:35 AM24.8 °F24.8 °F100 %30.03 in10.0 miCalmClear
6:55 AM24.8 °F24.8 °F100 %30.03 in10.0 miCalmClear
7:15 AM24.8 °F24.8 °F100 %30.04 in10.0 miCalmClear
7:35 AM26.6 °F26.6 °F100 %30.04 in10.0 miSouth (170°)3.5 mphClear
7:55 AM30.2 °F28.4 °F93 %30.04 in10.0 miCalmClear
8:15 AM32.0 °F26.6 °F80 %30.05 in10.0 miCalmClear
8:35 AM32.0 °F28.4 °F87 %30.07 in10.0 miCalmClear
8:55 AM32.0 °F28.4 °F87 %30.10 in10.0 miCalmClear
9:15 AM35.6 °F28.4 °F75 %30.10 in10.0 miCalmClear
9:35 AM35.6 °F30.2 °F81 %30.11 in10.0 miNW (310°)3.5 mphClear
9:55 AM41.0 °F30.2 °F65 %30.12 in10.0 miWest (280°)6.9 mphScattered Clouds
10:15 AM41.0 °F28.4 °F61 %30.12 in10.0 miWSW (240°)9.2 mphMostly Cloudy
10:35 AM41.0 °F28.4 °F61 %30.13 in10.0 miWSW (250°)6.9 mphOvercast
10:55 AM41.0 °F28.4 °F61 %30.14 in10.0 miWSW (250°)8.1 mphOvercast
11:15 AM42.8 °F28.4 °F57 %30.14 in10.0 miWest (260°)5.8 mphScattered Clouds
11:35 AM42.8 °F28.4 °F57 %30.16 in10.0 miWest (260°)6.9 mphClear
11:55 AM42.8 °F30.2 °F61 %30.16 in10.0 miWSW (250°)8.1 mphClear
12:15 PM44.6 °F28.4 °F53 %30.17 in10.0 miNW (310°)10.4 mphScattered Clouds
12:35 PM42.8 °F30.2 °F61 %30.16 in10.0 miNW (320°)12.7 mphScattered Clouds
12:55 PM42.8 °F28.4 °F57 %30.17 in10.0 miNNW (330°)15.0 mph19.6 mphScattered Clouds
1:15 PM42.8 °F26.6 °F53 %30.18 in10.0 miNNW (340°)16.1 mph19.6 mphScattered Clouds
1:35 PM41.0 °F28.4 °F61 %30.17 in10.0 miNorth (350°)15.0 mphMostly Cloudy
1:55 PM41.0 °F26.6 °F57 %30.18 in10.0 miNorth (350°)18.4 mph24.2 mphMostly Cloudy
2:15 PM37.4 °F26.6 °F65 %30.19 in10.0 miNNW (340°)16.1 mph19.6 mphOvercast
2:35 PM39.2 °F26.6 °F61 %30.20 in10.0 miNorth (360°)13.8 mph23.0 mphOvercast
2:55 PM37.4 °F26.6 °F65 %30.22 in10.0 miNorth (350°)18.4 mphMostly Cloudy
3:15 PM35.6 °F26.6 °F70 %30.25 in10.0 miNorth (350°)18.4 mph25.3 mphMostly Cloudy
3:35 PM32.0 °F24.8 °F75 %30.27 in10.0 miNNW (340°)16.1 mph25.3 mphOvercast
3:55 PM32.0 °F26.6 °F80 %30.29 in10.0 miNNW (330°)13.8 mph17.3 mphOvercast
4:15 PM32.0 °F26.6 °F80 %30.31 in10.0 miNNW (340°)12.7 mphOvercast
4:35 PM30.2 °F28.4 °F93 %30.30 in1.8 miNNW (340°)5.8 mphSnowLight Snow
4:55 PM30.2 °F26.6 °F86 %30.31 in10.0 miNorth (10°)5.8 mphOvercast
5:15 PM30.2 °F26.6 °F86 %30.31 in10.0 miNNW (340°)11.5 mph17.3 mphMostly Cloudy
5:35 PM30.2 °F21.2 °F69 %30.32 in10.0 miNNW (330°)11.5 mphScattered Clouds
5:55 PM30.2 °F19.4 °F64 %30.34 in10.0 miNNW (330°)10.4 mph17.3 mphScattered Clouds
6:15 PM30.2 °F21.2 °F69 %30.35 in10.0 miNNW (340°)5.8 mphClear
6:35 PM28.4 °F19.4 °F69 %30.36 in10.0 miNorth (350°)15.0 mph18.4 mphClear
6:55 PM28.4 °F14.0 °F55 %30.39 in10.0 miNNW (340°)9.2 mph18.4 mphClear
7:15 PM26.6 °F15.8 °F64 %30.40 in10.0 miNorth (350°)10.4 mphClear
7:35 PM26.6 °F14.0 °F59 %30.41 in10.0 miNW (320°)9.2 mphClear
7:55 PM26.6 °F10.4 °F51 %30.43 in10.0 miNNW (340°)12.7 mphClear
8:15 PM26.6 °F10.4 °F51 %30.43 in10.0 miNNW (330°)13.8 mph17.3 mphClear
8:35 PM24.8 °F10.4 °F54 %30.44 in10.0 miNorth (350°)12.7 mphClear
8:55 PM24.8 °F10.4 °F54 %30.45 in10.0 miNNW (340°)6.9 mphClear
9:15 PM24.8 °F10.4 °F54 %30.47 in10.0 miNNW (340°)6.9 mphClear
9:35 PM23.0 °F12.2 °F63 %30.47 in10.0 miNorth (350°)5.8 mphClear
9:55 PM23.0 °F10.4 °F59 %30.47 in10.0 miNorth (350°)9.2 mphClear
10:15 PM23.0 °F10.4 °F59 %30.49 in10.0 miNNW (340°)10.4 mph16.1 mphClear
10:35 PM23.0 °F10.4 °F59 %30.48 in10.0 miNorth (360°)5.8 mphClear
10:55 PM23.0 °F10.4 °F59 %30.48 in10.0 miNNW (340°)9.2 mphClear
11:15 PM21.2 °F12.2 °F68 %30.47 in10.0 miNNW (340°)5.8 mphClear
11:35 PM21.2 °F12.2 °F68 %30.48 in10.0 miNorth (350°)6.9 mphClear
11:55 PM21.2 °F12.2 °F68 %30.48 in10.0 miNorth (350°)8.1 mphClear
Hourly data recorded from KGMJ, located miles away from Grove, Oklahoma







STORIES FROM OUR PARTNERS